Flag for Germany Weather past 2 weeks in Kamp-Lintfort, North Rhine-Westphalia, Germany

Now
65 °F

Light rain. Overcast.


Feels Like: 65 °F
Forecast: 61 / 77 °F
Wind: 1 mph from East

Location: Duesseldorf

Current Time: Sep 18, 2014 at 10:49:33 AM

Latest Report: Sep 18, 2014 at 10:00 AM


Visibility: 19 mi

Pressure: 29.85 "Hg

Humidity: 78%

Dew point: 58 °F

Location of Kamp-LintfortLocation

Historic Weather in Kamp-Lintfort — Graph

°F

Kamp-Lintfort temperature yesterday

Maximum temperature yesterday: 76 °F (at 5:00 PM)
Minimum temperature yesterday: 56 °F (at 6:00 AM)
Average temperature yesterday: 66 °F

Past Weeks' High & Low Weather Summary

 TemperatureHumidityPressure
High76 °F (Sep 17, 5:00 PM)95% (Sep 8, 2:00 AM)30.25 "Hg (Sep 8, 2:00 AM)
Low46 °F (Sep 12, 8:00 AM)48% (Sep 17, 6:00 PM)29.84 "Hg (Sep 18, 6:00 AM)
Average62 °F78%30.06 "Hg
* Reported Sep 3 9:00 AM — Sep 18 9:00 AM, Kamp-Lintfort, Weather by CustomWeather, © 2014

Note: Actual official high and low records may vary slightly from our data, if they occured in-between our weather recording intervals... More about our weather records

Advertising

Kamp-Lintfort weather history for previous 24 hours

 ConditionsComfort  
Time TempWeatherWind HumidityBarometerVisibility
9:00 AM
Sep 18
64 °FScattered clouds.3 mph78%29.85 "Hg19 mi
8:00 AM61 °FPassing clouds.1 mph84%29.85 "Hg16 mi
7:00 AM62 °FPassing clouds.2 mph82%29.85 "Hg16 mi
6:00 AM56 °FFog.1 mph92%29.84 "Hg22 mi
5:00 AM57 °FPassing clouds.1 mph92%29.85 "Hg22 mi
4:00 AM58 °FFog.1 mph90%29.85 "Hg22 mi
3:00 AM58 °FPassing clouds.1 mph90%29.85 "Hg22 mi
2:00 AM59 °FFog.1 mph86%29.86 "Hg19 mi
1:00 AM60 °FFog.2 mph87%29.86 "Hg22 mi
12:00 AM60 °FPassing clouds.2 mph86%29.87 "Hg25 mi
10:00 PM
Sep 17
64 °FPassing clouds.3 mph75%29.87 "Hg25 mi
9:00 PM65 °FPassing clouds.2 mph73%29.87 "Hg25 mi
8:00 PM67 °FPassing clouds.2 mph67%29.86 "Hg25 mi
7:00 PM73 °FScattered clouds.3 mph55%29.85 "Hg25 mi
6:00 PM76 °FPassing clouds.3 mph48%29.85 "Hg25 mi
5:00 PM76 °FPassing clouds.3 mph49%29.85 "Hg19 mi
4:00 PM75 °FPassing clouds.3 mph50%29.87 "Hg25 mi
3:00 PM74 °FPassing clouds.3 mph53%29.88 "Hg25 mi
2:00 PM75 °FPassing clouds.2 mph53%29.89 "Hg19 mi
1:00 PM73 °FPassing clouds.2 mph58%29.90 "Hg19 mi
12:00 PM73 °FPassing clouds.1 mph62%29.91 "Hg16 mi
10:00 AM67 °FPassing clouds.1 mph69%29.93 "Hg16 mi
Weather by CustomWeather, © 2014

See weather overviewHow to use our weather pages